[Iaude] MPEC L38: 2024 LM [a=1.46,e=0.32,i=6.3,H=27.9]

mpec at cfa.harvard.edu mpec at cfa.harvard.edu
Mon Jun 3 23:29:07 EDT 2024


M.P.E.C. 2024-L38                                  Issued 2024 June 4, 03:27 UT

     The Minor Planet Electronic Circulars contain information on unusual
         minor planets, routine data on comets and natural satellites,
         and occasional editorial announcements.  They are published
    on behalf of Division F of the International Astronomical Union by the
          Minor Planet Center, Smithsonian Astrophysical Observatory,
                          Cambridge, MA 02138, U.S.A.
			  
             Prepared using the Tamkin Foundation Computer Network

                              MPC at CFA.HARVARD.EDU
            URL https://www.minorplanetcenter.net/    ISSN 1523-6714

                                    2024 LM                                     


Observations:
     K24L00M*1C2024 06 03.32185215 35 21.100+13 38 34.60               VEL038G96
     K24L00M 1C2024 06 03.32707915 35 40.530+13 46 14.60               VEL038G96
     K24L00M 1C2024 06 03.33230015 35 59.910+13 53 53.50         19.70GVEL038G96
     K24L00M 1C2024 06 03.33752815 36 19.450+14 01 34.20               VEL038G96
     K24L00M KC2024 06 03.41722915 41 31.124+15 59 41.35         18.90GVEL038I52
     K24L00M KC2024 06 03.41803715 41 34.436+16 00 53.93         18.62GVEL038I52
     K24L00M KC2024 06 03.41884415 41 37.741+16 02 06.32         18.64GVEL038I52
     K24L00M KC2024 06 03.41965815 41 41.068+16 03 19.01         18.60GVEL038I52
     K24L00M 1C2024 06 03.43845615 42 58.980+16 31 27.70         18.38GVEL038703
     K24L00M 1C2024 06 03.43993815 43 05.200+16 33 40.90         18.27GVEL038703
     K24L00M 1C2024 06 03.44142415 43 11.460+16 35 55.10         18.49GVEL038703
     K24L00M 1C2024 06 03.44290515 43 17.690+16 38 07.60         18.33GVEL038703
     K24L00M KC2024 06 03.44377815 43 21.414+16 39 26.60         18.62GVEL038I52
     K24L00M KC2024 06 03.44407915 43 22.685+16 39 53.46         18.89GVEL038I52
     K24L00M KC2024 06 03.44438015 43 23.959+16 40 20.64         18.73GVEL038I52
     K24L00M KC2024 06 03.44468015 43 25.255+16 40 47.71         18.24GVEL038I52
     K24L00M KB2024 06 03.48235715 48 07.598+17 39 55.44         18.0 VZEL038Q06
     K24L00M KB2024 06 03.48918015 48 36.211+17 50 37.27         19.6 VZEL038Q06
     K24L00M KC2024 06 03.62145815 58 07.76 +21 20 05.9          18.1 GVEL038900
     K24L00M KC2024 06 03.62484615 58 22.97 +21 25 29.6          18.5 GVEL038900
     K24L00M KC2024 06 03.62823315 58 38.24 +21 30 51.5          18.4 GVEL038900
     K24L00M KC2024 06 03.85138716 19 29.33 +27 26 30.0          18.1 GVEL038104
     K24L00M KC2024 06 03.85272 16 19 34.81 +27 30 13.6          18.4  VEL038C82
     K24L00M KC2024 06 03.85391816 19 42.85 +27 30 40.0          18.3 GVEL038104
     K24L00M KC2024 06 03.85602 16 19 52.23 +27 35 39.1          18.3  VEL038C82
     K24L00M KC2024 06 03.85644816 19 56.41 +27 34 48.8          18.3 GVEL038104
     K24L00M KB2024 06 03.86432 16 20 39.96 +27 47 21.6          18.0 GXEL038G15
     K24L00M KB2024 06 03.86681 16 20 53.30 +27 51 25.3          19.2 GXEL038G15
     K24L00M KB2024 06 03.90126916 24 12.57 +28 47 31.3          18.8 GXEL038958
     K24L00M KB2024 06 03.90489716 24 32.45 +28 53 27.4          18.6 GXEL038958
     K24L00M KB2024 06 03.91056116 25 03.56 +29 02 42.4          19.0 GXEL038958
     K24L00M KB2024 06 03.91324916 25 18.40 +29 07 05.5          18.4 GXEL038958
     K24L00M KB2024 06 03.92512316 26 22.39 +29 26 07.8          18.3 GXEL038I93
     K24L00M KC2024 06 03.92721016 26 22.22 +29 29 22.2                VEL038204
     K24L00M KB2024 06 03.92779216 26 37.17 +29 30 27.9          18.6 GXEL038I93
     K24L00M KB2024 06 03.93041516 26 51.70 +29 34 43.8          18.8 GXEL038I93
     K24L00M KC2024 06 03.93118316 26 44.17 +29 35 47.2          18.3 GVEL038204
     K24L00M KB2024 06 03.93306616 27 06.39 +29 39 01.1          18.4 GXEL038I93
     K24L00M KC2024 06 03.93517616 27 06.28 +29 42 14.0                VEL038204

Observer details:
104 San Marcello Pistoiese.  Observers P. Bacci, M. Maestripieri.  Measurers
    P. Bacci, L. Tesi, G. Fagioli.  0.60-m F4 Reflector + CCD.
204 Schiaparelli Observatory.  Observer L. Buzzi.  0.84-m f/3.5 reflector +
    CMO.
703 Catalina Sky Survey.  Observer R. A. Kowalski.  Measurers T. Beuden, V. F.
    Carvajal, D. Fay, J. B. Fazekas, D. C. Fuls, A. R. Gibbs, A. D. Grauer, H.
    Groeller, J. K. Hogan, R. A. Kowalski, S. M. Larson, G. J. Leonard, D.
    Rankin, R. L. Seaman, F. C. Shelly, K. W. Wierzchos.  0.68-m Schmidt + 10K
    CCD.
900 Moriyama.  Observer Y. Ikari.  0.26-m f/7.0 reflector + CMO.
958 Observatoire de Dax.  Observer P. Dupouy.  0.50-m f/4.5 Reflector + CMO.
C82 Osservatorio Astronomico Nastro Verde, Sorrento.  Observer N. Ruocco.
    0.35-m f/6.3  Schmidt-Cassegrain + CCD.
G15 Magroforte Observatory, Alessandria.  Observer A. De Pieri.  0.23-m f/6.7
    SC + CMO.
G96 Mt. Lemmon Survey.  Observer J. B. Fazekas.  Measurers T. Beuden, V. F.
    Carvajal, D. Fay, J. B. Fazekas, D. C. Fuls, A. R. Gibbs, A. D. Grauer, H.
    Groeller, J. K. Hogan, R. A. Kowalski, S. M. Larson, G. J. Leonard, D.
    Rankin, R. L. Seaman, F. C. Shelly, K. W. Wierzchos.  1.5-m reflector +
    10K CCD.
I52 Steward Observatory, Mt. Lemmon Station.  Observer K. W. Wierzchos.
    Measurers T. Beuden, V. F. Carvajal, D. Fay, J. B. Fazekas, D. C. Fuls, A.
    R. Gibbs, A. D. Grauer, H. Groeller, J. K. Hogan, R. A. Kowalski, S. M.
    Larson, G. J. Leonard, D. Rankin, R. L. Seaman, F. C. Shelly, K. W.
    Wierzchos.  1.0-m prime focus + CCD.
I93 St Pardon de Conques.  Observer F. Losse.  0.40-m f/3.7 reflector + CMO.
Q06 Tarui Observatory, Tarui.  Observer H. Watanabe.  0.35-m f/1.9 Schmidt-
    Cassegrain + CMO.

Orbital elements:
2024 LM                                                  Earth MOID = 0.0063 AU
Epoch 2024 Mar. 31.0 TT = JDT 2460400.5                 Veres                   
M 311.30688              (2000.0)            P               Q                  
n   0.55771148     Peri.   27.65095     +0.14584840     +0.98388408             
a   1.4617160      Node   250.88814     -0.92668327     +0.09925699             
e   0.3191351      Incl.    6.28515     -0.34639046     +0.14872849             
P   1.77           H   27.98          G   0.15           U   6                  
Residuals in seconds of arc
240603 G96  0.5-  0.4-    240603 I52  0.1-  0.0     240603 G15  0.1+  0.5+
240603 G96  0.7+  0.3+    240603 I52  0.1-  0.1+    240603 G15  0.6-  0.7-
240603 G96  0.1+  0.3-    240603 I52  0.3+  0.0     240603 958  0.0   0.4-
240603 G96  0.0   0.2-    240603 Q06  0.3-  0.1-    240603 958  0.2-  0.1-
240603 I52  0.0   0.2+    240603 Q06  0.0   0.6-    240603 958  0.1-  0.1+
240603 I52  0.1+  0.4+    240603 900  0.4-  0.6-    240603 958  0.7+  0.2+
240603 I52  0.1+  0.4+    240603 900  0.5-  0.2+    240603 I93  0.1-  0.3-
240603 I52  0.0   0.2+    240603 900  0.2-  0.8-    240603 204  0.1+  0.2-
240603 703  0.0   0.1+    240603 104  0.2-  0.4-    240603 I93  0.1+  0.2-
240603 703  0.0   0.0     240603 C82  0.8+  0.0     240603 I93  0.1+  0.2+
240603 703  0.1+  0.4+    240603 104  0.3-  0.2+    240603 204  0.0   0.3-
240603 703  0.1-  0.5-    240603 C82  0.5-  0.5+    240603 I93  0.1-  0.4-
240603 I52  0.1-  0.2+    240603 104  0.1+  0.2-    240603 204  0.1-  0.1-

Ephemeris:
2024 LM                  a,e,i = 1.46, 0.32, 6                   q = 0.9952
Date    TT    R. A. (2000) Decl.     Delta      r    Elong.  Phase     V
2024 05 05    13 07 11.7 -38 19 44   0.1178  1.1108   148.6    28.2    24.8
...
2024 05 20    13 06 18.5 -36 42 12   0.05773 1.0574   141.1    36.9    23.4
...
2024 05 28    13 25 52.6 -31 25 33   0.02740 1.0345   140.0    39.0    21.8
...
2024 06 03    15 15 46.8 +06 22 40   0.0074161.0203   144.0    35.7    18.8
2024 06 04    16 33 24.5 +31 30 17   0.0063821.0182   126.0    53.8    19.0
2024 06 05    18 41 26.9 +51 37 39   0.0074401.0162   102.1    77.5    20.1
...
2024 06 11    23 42 40.4 +49 08 27   0.02726 1.0058    68.8   109.8    24.3
...
2024 06 19    00 19 06.9 +44 51 01   0.05680 0.9970    68.9   108.1    25.8
...
2024 07 04    00 41 59.4 +42 57 31   0.1106  0.9968    76.5    97.3    26.7

M. P. C. Staff               (C) Copyright 2024 MPC           M.P.E.C. 2024-L38





More information about the Iaude mailing list